Voltar ao catálogo

USA 40 R/B DEB

LostHEO
NORAD 23395·DEBRIS·🇺🇸 United States

Lançado Aug 8, 1989 de Cape Canaveral Space Force Station

Loading…

Próximas Passagens (próximas 24 horas)

TLE

ObsoletoSource: Space-Track

Época: May 2, 2026, 16:25 UTC

1 23395U 89061BT  26122.68423624  .00013254  00000-0  64453-2 0  9993
2 23395  57.1117 129.9966 2973324 241.1065  86.0030  9.03058587 77520

Acompanhe USA 40 R/B DEB em tempo real com AllMySat

Download on the App Store